Regional Weather Roundup
Issued by NWS Newport/Morehead, NC

Current Version | Previous Version | Graphics & Text | Print | Product List | Glossary Off
Versions: 1 2 3 4 5 6 7 8 9 10 11 12 13 14 15 16 17 18 19 20 21 22 23 24 25 26 27 28 29 30 31 32 33 34 35 36 37 38 39 40 41 42 43 44 45 46 47 48 49 50

000
ASUS42 KMHX 200622
RWRMHX
WEATHER ROUNDUP FOR EASTERN NORTH CAROLINA
NATIONAL WEATHER SERVICE NEWPORT/MOREHEAD CITY NC
100 AM EST SAT DEC 20 2014

NOTE: "FAIR" INDICATES FEW OR NO CLOUDS BELOW 12,000 FEET
WITH NO SIGNIFICANT WEATHER AND/OR OBSTRUCTIONS TO VISIBILITY

NCZ015>017-031-032-045>047-102-103-200700-
NORTH COAST

CITY           SKY/WX    TMP DP  RH WIND       PRES   REMARKS
EDENTON          N/A     34  31  88 NE3       30.24R
ELIZABETH CITY PTCLDY    40  31  70 N7        30.23F
KITTY HAWK     CLEAR     40  32  73 N6        30.21S
MANTEO         CLEAR     39  32  76 NE6       30.22F

$$

NCZ045>047-081-094-103-104-200700-
CENTRAL COAST

CITY           SKY/WX    TMP DP  RH WIND       PRES   REMARKS
FRISCO         PTCLDY    41  33  73 NE6       30.21F
SWANQUARTER      N/A     36 N/A N/A NE3       30.18S

$$

NCZ095-097-098-100-101-200700-
SOUTHERN COAST

CITY           SKY/WX    TMP DP  RH WIND       PRES   REMARKS
BEAUFORT       MOCLDY    42  36  79 NE6       30.21R
CEDAR ISLAND     N/A     45 N/A N/A NE8G14    30.24S
JACKSONVILLE   MOCLDY    42  34  73 NE7       30.21S
PINEY ISLAND   PTCLDY    46  34  62 NE7       30.21S
WILMINGTON     CLOUDY    44  35  70 NE5       30.20R


$$

NCZ011>013-027>030-043-044-078>080-089-090>093-098-200700-
COASTAL PLAIN

CITY           SKY/WX    TMP DP  RH WIND       PRES   REMARKS
AHOSKIE        CLOUDY    31  28  89 CALM      30.26R
CLINTON        MOCLDY    41  33  72 NE3       30.22S
ELIZABETHTOWN  CLOUDY    42  33  68 CALM      30.21R
GOLDSBORO      MOCLDY    37  36  97 CALM      30.21R
GREENVILLE     PTCLDY    32  32 100 CALM      30.24S
HAVELOCK       PTCLDY    37  33  85 CALM      30.23R
KENANSVILLE    CLOUDY    36  32  85 CALM      30.23S
KINSTON        MOCLDY    32  31  95 CALM      30.23R
NEW BERN       PTCLDY    36  32  85 CALM      30.24R
RICHLANDS      CLOUDY    37  30  75 N6        30.21F
ROCKY MOUNT    MOCLDY    34  30  85 N6        30.24R
WASHINGTON     PTCLDY    33  30  90 CALM      30.24R
WHITEVILLE     CLOUDY    42  36  76 CALM      30.19F

$$

AMZ130-135-150-152-154-156-158-170-250-252-270-ANZ085-086-088-633-658-670-200700-
MARINE OBSERVATIONS

STATION/POSITION TIME  TEMP    WIND        PRES    WAVE   SWELL
                       AIR SEA DIR/SP/G            HT/PER HT/PER
                 (UTC) (F)     (DEG/KT/KT) (MB)    (FT/S) (FT/S)
CHESAPEAKE LIGHT 0600   40     360/ 12/ 13 1024.0
64 E VA BEACH    0600   43 54  350/ 12/ 16 1022.7    4/ 5   2/ 6
DUCK             0600   42 47   10/ 11/ 14 1022.3
2 E DUCK         0600      47                N/A     3/ 6
10 NE DUCK       0600      52                N/A     3/ 6
OREGON INLET     0600   41 50  360/  5/ 10 1023.0
13E OREGON INLT  0600      52                N/A     4/ 6
HATTERAS CG      0600   44 52   30/  7/ 10 1023.3
DIAMOND BUOY     0600   46                 1022.9    3/ 6
17 S OCRACOKE    NOT AVBL
CAPE LOOKOUT     0600   45      10/  8/ 10 1022.7
BEAUFORT LAB     0600   43 52   30/  3/  6 1022.1
30 SE NEW RIVER  0600   52 61   50/ 12/ 16 1022.6    2/11   2/11
5 SE WRIGHTSVLE  NOT AVBL
225 S CAPE HAT   0504   65 72   50/  4/  6 1021.1    2/11   2/11
41 SE CHARLESTON 0600   65 68   50/  6/  8 1020.3    2/ 4   2/ 8

$$



USA.gov is the U.S. government's official web portal to all federal, state and local government web resources and services.